• In Deutschland
  • Länderverzeichnis
  • Für 7 Tage
  • Wassertemperatur
  • Satellitenkarten
  • Wetterkarte
  • Widgets
  • user-avatar
    Anmelden

    Stündliche Wetter Werder

    Heute, 21 August, Dienstag

    Zeit Temperatur Niederschläge Wind Luftdruck Luftfeuchtigkeit
    00:00 +19°C° 0 mm 2 m/S 760 mmHg 79%
    01:00 +18°C° 0 mm 2 m/S 761 mmHg 80%
    02:00 +18°C° 0 mm 2 m/S 761 mmHg 81%
    03:00 +17°C° 0 mm 2 m/S 761 mmHg 82%
    04:00 +16°C° 0 mm 2 m/S 761 mmHg 83%
    05:00 +16°C° 0 mm 2 m/S 761 mmHg 80%
    06:00 +17°C° 0 mm 2 m/S 762 mmHg 77%
    07:00 +17°C° 0 mm 2 m/S 762 mmHg 75%
    08:00 +18°C° 0 mm 2 m/S 762 mmHg 67%
    09:00 +20°C° 0 mm 2 m/S 762 mmHg 60%
    10:00 +21°C° 0 mm 2 m/S 763 mmHg 53%
    11:00 +23°C° 0 mm 2 m/S 762 mmHg 49%
    12:00 +24°C° 0 mm 2 m/S 762 mmHg 45%
    13:00 +25°C° 0 mm 2 m/S 762 mmHg 41%
    14:00 +26°C° 0 mm 2 m/S 762 mmHg 39%
    15:00 +26°C° 0 mm 2 m/S 762 mmHg 38%
    16:00 +26°C° 0 mm 2 m/S 761 mmHg 36%
    17:00 +25°C° 0 mm 2 m/S 761 mmHg 41%
    18:00 +24°C° 0 mm 2 m/S 761 mmHg 45%
    19:00 +22°C° 0 mm 1 m/S 761 mmHg 49%
    20:00 +20°C° 0 mm 2 m/S 762 mmHg 51%
    21:00 +19°C° 0 mm 2 m/S 762 mmHg 54%
    22:00 +18°C° 0 mm 2 m/S 762 mmHg 56%
    23:00 +18°C° 0 mm 2 m/S 762 mmHg 58%

    Morgen, 22 August, Mittwoch

    Zeit Temperatur Niederschläge Wind Luftdruck Luftfeuchtigkeit
    00:00 +17°C° 0 mm 2 m/S 762 mmHg 61%
    01:00 +16°C° 0 mm 2 m/S 762 mmHg 63%
    02:00 +16°C° 0 mm 2 m/S 762 mmHg 65%
    03:00 +16°C° 0 mm 2 m/S 762 mmHg 67%
    04:00 +16°C° 0 mm 2 m/S 762 mmHg 69%
    05:00 +16°C° 0 mm 2 m/S 762 mmHg 67%
    06:00 +17°C° 0 mm 2 m/S 762 mmHg 65%
    07:00 +18°C° 0 mm 2 m/S 762 mmHg 64%
    08:00 +20°C° 0 mm 2 m/S 761 mmHg 57%
    09:00 +23°C° 0 mm 2 m/S 761 mmHg 50%
    10:00 +26°C° 0 mm 2 m/S 761 mmHg 43%
    11:00 +27°C° 0 mm 2 m/S 761 mmHg 40%
    12:00 +28°C° 0 mm 2 m/S 760 mmHg 36%
    13:00 +29°C° 0 mm 2 m/S 760 mmHg 33%
    14:00 +29°C° 0 mm 2 m/S 759 mmHg 33%
    15:00 +29°C° 0 mm 2 m/S 759 mmHg 33%
    16:00 +30°C° 0 mm 2 m/S 759 mmHg 32%
    17:00 +28°C° 0 mm 1 m/S 758 mmHg 37%
    18:00 +27°C° 0 mm 1 m/S 758 mmHg 42%
    19:00 +25°C° 0 mm 1 m/S 758 mmHg 47%
    20:00 +25°C° 0 mm 1 m/S 758 mmHg 48%
    21:00 +24°C° 0 mm 1 m/S 758 mmHg 49%
    22:00 +24°C° 0 mm 1 m/S 758 mmHg 50%
    23:00 +23°C° 0 mm 1 m/S 758 mmHg 54%

    übermorgen, 23 August, Donnerstag

    Zeit Temperatur Niederschläge Wind Luftdruck Luftfeuchtigkeit
    00:00 +23°C° 0 mm 1 m/S 758 mmHg 57%
    01:00 +23°C° 0 mm 1 m/S 758 mmHg 60%
    02:00 +22°C° 0 mm 1 m/S 757 mmHg 63%
    03:00 +22°C° 0 mm 1 m/S 757 mmHg 65%
    04:00 +22°C° 0 mm 1 m/S 757 mmHg 68%
    05:00 +22°C° 0 mm 1 m/S 757 mmHg 67%
    06:00 +23°C° 0 mm 1 m/S 757 mmHg 67%
    07:00 +23°C° 0 mm 1 m/S 757 mmHg 66%
    08:00 +25°C° 0 mm 1 m/S 757 mmHg 60%
    09:00 +27°C° 0 mm 2 m/S 757 mmHg 54%
    10:00 +29°C° 0 mm 2 m/S 757 mmHg 47%
    11:00 +29°C° 0 mm 2 m/S 756 mmHg 46%
    12:00 +30°C° 0 mm 2 m/S 756 mmHg 45%
    13:00 +30°C° 0 mm 3 m/S 755 mmHg 44%
    14:00 +30°C° 0 mm 3 m/S 755 mmHg 44%
    15:00 +30°C° 0 mm 3 m/S 755 mmHg 43%
    16:00 +31°C° 0 mm 2 m/S 755 mmHg 43%
    17:00 +29°C° 0 mm 2 m/S 754 mmHg 47%
    18:00 +28°C° 0 mm 1 m/S 754 mmHg 51%
    19:00 +27°C° 0 mm 1 m/S 754 mmHg 54%
    20:00 +26°C° 0 mm 1 m/S 754 mmHg 57%
    21:00 +25°C° 0 mm 1 m/S 754 mmHg 60%
    22:00 +24°C° 0 mm 1 m/S 754 mmHg 63%
    23:00 +23°C° 0,1 mm 1 m/S 754 mmHg 67%

    24 August, Freitag

    Zeit Temperatur Niederschläge Wind Luftdruck Luftfeuchtigkeit
    00:00 +22°C° 0,1 mm 1 m/S 754 mmHg 72%
    01:00 +22°C° 0,1 mm 1 m/S 753 mmHg 76%
    02:00 +20°C° 0,1 mm 2 m/S 753 mmHg 80%
    03:00 +20°C° 0,1 mm 2 m/S 753 mmHg 83%
    04:00 +19°C° 0,1 mm 2 m/S 753 mmHg 86%
    05:00 +19°C° 0,5 mm 2 m/S 753 mmHg 87%
    06:00 +19°C° 0,5 mm 2 m/S 753 mmHg 88%
    07:00 +19°C° 0,5 mm 3 m/S 753 mmHg 89%
    08:00 +20°C° 0,2 mm 3 m/S 753 mmHg 81%
    09:00 +21°C° 0,2 mm 4 m/S 753 mmHg 73%
    10:00 +21°C° 0,2 mm 4 m/S 754 mmHg 64%
    11:00 +22°C° 0 mm 5 m/S 754 mmHg 58%
    12:00 +23°C° 0 mm 5 m/S 754 mmHg 52%
    13:00 +24°C° 0 mm 6 m/S 754 mmHg 45%
    14:00 +23°C° 0 mm 6 m/S 754 mmHg 45%
    15:00 +22°C° 0 mm 6 m/S 754 mmHg 46%
    16:00 +21°C° 0 mm 6 m/S 754 mmHg 46%
    17:00 +20°C° 0 mm 5 m/S 754 mmHg 47%
    18:00 +19°C° 0 mm 4 m/S 755 mmHg 48%
    19:00 +18°C° 0 mm 3 m/S 755 mmHg 49%
    20:00 +17°C° 0 mm 3 m/S 755 mmHg 50%
    21:00 +16°C° 0 mm 3 m/S 756 mmHg 51%
    22:00 +16°C° 0 mm 3 m/S 756 mmHg 53%
    23:00 +14°C° 0 mm 3 m/S 756 mmHg 56%

    25 August, Samstag

    Zeit Temperatur Niederschläge Wind Luftdruck Luftfeuchtigkeit
    00:00 +13°C° 0 mm 3 m/S 756 mmHg 59%
    01:00 +12°C° 0 mm 3 m/S 756 mmHg 62%
    02:00 +12°C° 0 mm 3 m/S 756 mmHg 65%
    03:00 +12°C° 0 mm 2 m/S 756 mmHg 68%
    04:00 +12°C° 0 mm 2 m/S 756 mmHg 71%
    05:00 +12°C° 0 mm 2 m/S 756 mmHg 69%
    06:00 +12°C° 0 mm 3 m/S 757 mmHg 68%
    07:00 +13°C° 0 mm 3 m/S 757 mmHg 66%
    08:00 +14°C° 0 mm 3 m/S 756 mmHg 58%
    09:00 +17°C° 0 mm 4 m/S 756 mmHg 50%
    10:00 +18°C° 0 mm 4 m/S 756 mmHg 43%
    11:00 +19°C° 0 mm 4 m/S 756 mmHg 39%
    12:00 +20°C° 0 mm 4 m/S 755 mmHg 36%
    13:00 +21°C° 0 mm 4 m/S 755 mmHg 33%
    14:00 +21°C° 0 mm 3 m/S 755 mmHg 33%
    15:00 +21°C° 0 mm 3 m/S 754 mmHg 34%
    16:00 +20°C° 0 mm 3 m/S 754 mmHg 35%
    17:00 +20°C° 0 mm 2 m/S 754 mmHg 38%
    18:00 +19°C° 0 mm 2 m/S 754 mmHg 41%
    19:00 +19°C° 0 mm 1 m/S 754 mmHg 45%
    20:00 +17°C° 0 mm 2 m/S 754 mmHg 47%
    21:00 +16°C° 0 mm 2 m/S 754 mmHg 49%
    22:00 +16°C° 0 mm 2 m/S 754 mmHg 51%
    23:00 +15°C° 0 mm 2 m/S 754 mmHg 55%

    26 August, Sonntag

    Zeit Temperatur Niederschläge Wind Luftdruck Luftfeuchtigkeit
    00:00 +15°C° 0 mm 2 m/S 753 mmHg 60%
    01:00 +14°C° 0 mm 2 m/S 753 mmHg 64%
    02:00 +14°C° 0,2 mm 1 m/S 753 mmHg 68%
    03:00 +14°C° 0,2 mm 1 m/S 753 mmHg 72%
    04:00 +14°C° 0,2 mm 1 m/S 752 mmHg 76%
    05:00 +14°C° 0,2 mm 1 m/S 752 mmHg 77%
    06:00 +14°C° 0,2 mm 1 m/S 752 mmHg 79%
    07:00 +14°C° 0,2 mm 1 m/S 752 mmHg 81%
    08:00 +14°C° 0,3 mm 1 m/S 752 mmHg 79%
    09:00 +15°C° 0,3 mm 1 m/S 752 mmHg 77%
    10:00 +15°C° 0,3 mm 2 m/S 752 mmHg 75%
    11:00 +15°C° 0,3 mm 2 m/S 752 mmHg 76%
    12:00 +14°C° 0,3 mm 3 m/S 752 mmHg 77%
    13:00 +14°C° 0,3 mm 3 m/S 753 mmHg 77%
    14:00 +14°C° 0,2 mm 3 m/S 753 mmHg 78%
    15:00 +14°C° 0,2 mm 3 m/S 753 mmHg 78%
    16:00 +14°C° 0,2 mm 3 m/S 753 mmHg 78%
    17:00 +14°C° 0,1 mm 3 m/S 754 mmHg 80%
    18:00 +13°C° 0,1 mm 3 m/S 754 mmHg 82%
    19:00 +14°C° 0,1 mm 2 m/S 755 mmHg 83%
    20:00 +14°C° 0,2 mm 2 m/S 755 mmHg 84%
    21:00 +13°C° 0,2 mm 2 m/S 756 mmHg 84%
    22:00 +13°C° 0,2 mm 2 m/S 756 mmHg 85%
    23:00 +13°C° 0 mm 2 m/S 757 mmHg 84%
    Mehr zeigen